Terrell, TX

2:49 AM CDT on May 27, 2017 (GMT -0500)
Terrell Municipal

Weather History for KTRL - January, 2014

Change the Weather History Date:

Thursday, January 30, 2014

  Actual Average (KGVT) Record (KGVT)
Temperature  
Mean Temperature 42 °F -  
Max Temperature 55 °F 53 °F 77 °F (2002)
Min Temperature 30 °F 38 °F 23 °F (2008)
Degree Days  
Heating Degree Days 22    
Moisture  
Dew Point 31 °F    
Average Humidity 61    
Maximum Humidity 90    
Minimum Humidity 45    
Precipitation  
Precipitation 0.00 in - - ()
Sea Level Pressure  
Sea Level Pressure 29.99 in    
Wind  
Wind Speed 15 mph (South)    
Max Wind Speed 29 mph    
Max Gust Speed 38 mph    
Visibility 10 miles    
Events      
Averages and records for this station are not official NWS values.
T = Trace of Precipitation, MM = Missing Value Source: NWS Daily Summary

Daily Weather History Graph

Daily Weather History Graph

Search for Another Location

Airport or City:

Trip Planner

Search our weather history database for the weather conditions in past years. The results will help you decide how hot, cold, wet, or windy it might be!

Date:

Astronomy

Jan. 30, 2014 Rise Set
Actual Time 7:21 AM CST 5:56 PM CST
Civil Twilight 6:55 AM CST 6:22 PM CST
Nautical Twilight 6:25 AM CST 6:51 PM CST
Astronomical Twilight 5:56 AM CST 7:20 PM CST
Moon 6:50 AM CST (1/30) 6:05 PM CST (1/30)
Length of Visible Light 11h 26m
Length of Day
10h 34m
Waning Crescent, 0% of the Moon is Illuminated
Jan 30
Waning Crescent
Jan 30
New
Feb 6
First Quarter
Feb 14
Full
Feb 22
Last Quarter

Hourly Weather History & Observations

Time (CST) Temp. Windchill Dew Point Humidity Pressure Visibility Wind Dir Wind Speed Gust Speed Precip Events Conditions
12:53 AM 33.1 °F 24.4 °F 15.1 °F 48% 30.22 in 10.0 mi South 11.5 mph - N/A   Clear
1:53 AM 32.0 °F 22.5 °F 15.1 °F 50% 30.19 in 10.0 mi South 12.7 mph - N/A   Clear
2:53 AM 32.0 °F 23.0 °F 14.0 °F 48% 30.17 in 10.0 mi South 11.5 mph - N/A   Clear
3:53 AM 30.9 °F 22.2 °F 15.1 °F 52% 30.14 in 10.0 mi South 10.4 mph - N/A   Clear
4:53 AM 32.0 °F 21.6 °F 12.9 °F 45% 30.10 in 10.0 mi South 15.0 mph - N/A   Clear
5:53 AM 30.9 °F 20.7 °F 14.0 °F 50% 30.10 in 10.0 mi South 13.8 mph - N/A   Clear
6:53 AM 32.0 °F 20.8 °F 16.0 °F 52% 30.09 in 10.0 mi South 17.3 mph - N/A   Mostly Cloudy
7:53 AM 34.0 °F 25.0 °F 18.0 °F 52% 30.08 in 10.0 mi South 12.7 mph - N/A   Overcast
8:53 AM 35.1 °F 24.1 °F 19.9 °F 54% 30.08 in 10.0 mi South 19.6 mph 24.2 mph N/A   Overcast
9:53 AM 37.0 °F 27.0 °F 19.9 °F 50% 30.08 in 10.0 mi South 18.4 mph 27.6 mph N/A   Overcast
10:53 AM 41.0 °F 31.4 °F 24.1 °F 51% 30.04 in 10.0 mi South 21.9 mph 32.2 mph N/A   Overcast
11:53 AM 45.0 °F 36.2 °F 28.0 °F 52% 30.01 in 10.0 mi South 24.2 mph 32.2 mph N/A   Overcast
12:53 PM 50.0 °F - 33.1 °F 52% 29.94 in 10.0 mi SSW 19.6 mph 35.7 mph N/A   Mostly Cloudy
1:24 PM 51.1 °F - 35.1 °F 54% 29.93 in 10.0 mi SSW 24.2 mph 35.7 mph N/A   Scattered Clouds
1:34 PM 52.0 °F - 35.1 °F 53% 29.92 in 10.0 mi South 24.2 mph 34.5 mph N/A   Mostly Cloudy
1:41 PM 52.0 °F - 35.1 °F 53% 29.92 in 10.0 mi SSW 19.6 mph 35.7 mph N/A   Mostly Cloudy
1:53 PM 54.0 °F - 36.0 °F 51% 29.89 in 10.0 mi SSW 26.5 mph 38.0 mph N/A   Mostly Cloudy
2:53 PM 54.0 °F - 37.9 °F 55% 29.88 in 10.0 mi SSW 25.3 mph 36.8 mph N/A   Partly Cloudy
3:53 PM 55.9 °F - 39.9 °F 55% 29.88 in 10.0 mi South 28.8 mph 38.0 mph N/A   Scattered Clouds
4:53 PM 55.0 °F - 41.0 °F 59% 29.88 in 10.0 mi South 16.1 mph 28.8 mph N/A   Scattered Clouds
5:53 PM 54.0 °F - 42.1 °F 64% 29.88 in 10.0 mi South 12.7 mph 20.7 mph N/A   Partly Cloudy
6:53 PM 52.0 °F - 43.0 °F 71% 29.88 in 10.0 mi SSE 10.4 mph - N/A   Clear
7:53 PM 48.9 °F - 44.1 °F 83% 29.89 in 10.0 mi SSE 6.9 mph - N/A   Clear
8:53 PM 46.9 °F - 44.1 °F 90% 29.89 in 10.0 mi South 5.8 mph - N/A   Clear
9:53 PM 48.0 °F - 45.0 °F 89% 29.89 in 10.0 mi SSE 6.9 mph - N/A   Clear
10:32 PM 48.0 °F - 45.0 °F 89% 29.90 in 10.0 mi SSE 5.8 mph - N/A   Mostly Cloudy
10:53 PM 48.9 °F - 46.0 °F 90% 29.89 in 10.0 mi SSE 8.1 mph - N/A   Overcast
11:53 PM 52.0 °F - 48.0 °F 86% 29.88 in 10.0 mi South 12.7 mph - N/A   Overcast